Weather in Kuli

Russia / Republic of Dagestan     42°01′07″N   47°14′37″E
temp.,
°C
wind,
m/s
gust,
m/s
humid.,
%
clouds,
%
prec.,
mm/h
press.,
hPa
HPBL,
m
9 march, tue
tue900:00−14sw22812 0.1 101727
03:00−15sw43661 0.1 101727
06:00−15sw44550 0.0 101733
09:00−9sw33623 0.0 1017181
12:00−6wsw18510 0.0 10161204
15:00−7w16650 0.1 10161040
18:00−14sw44712 0.1 101842
21:00−15sw54652 0.1 102038
10 march, wed
wed1000:00−15sw54730 0.0 102046
03:00−16sw54660 0.0 102144
06:00−16sw54700 0.0 102345
09:00−10sw23710 0.0 1023378
12:00−7w15620 0.0 10221107
15:00−7sw14672 0.1 1021821
18:00−13sw43777 0.1 102251
21:00−14sw44715 0.1 102353
11 march, thu
thu1100:00−13sw33763 0.0 102145
03:00−11sw337852 0.1 101942
06:00−11ssw2279100 0.1 101840
09:00−9ene1189100 0.2 1018182
12:00−8ne2190100 0.2 1016320
15:00−8ne2293100 0.8 1015273
18:00−13e1195100 0.4 101630
21:00−15e1196100 0.8 101627
12 march, fri
fri1200:00−15ese1195100 0.3 101628
03:00−17e2298100 0.6 101538
06:00−18ese2299100 0.6 101740
09:00−16ene2395100 1.4 1019516
12:00−14ene3291100 0.8 1019459
15:00−14ne3294100 1.8 1020391
18:00−17ene22100100 0.8 102331
21:00−19sse1296100 1.1 102631
13 march, sat
sat1300:00−19nne0199100 0.6 102730
03:00−18nw1197100 0.9 102821
06:00−17wnw1197100 0.3 103020
09:00−14n219089 0.4 1031139
12:00−12nne219459 0.1 1030296
15:00−11nne229579 0.3 1030250
18:00−15wsw2289100 0.1 103120
21:00−16sw336464 0.1 103223